EW7398 Weather Reports


Display with metric or nautical units.
time (UTC)temp
F
wind
direction
speed
MPH
gust
MPH
rain 1hr
in
rain 24hr
in
rain mn
in
humidity
%
barometer
mb
20260905061528 67 167 0.0 0.0 0.00 0.00 0.00 58 1008.8
20260905060059 67 19 1.0 3.0 0.00 0.00 0.00 58 1008.8
20260905054534 68 13 1.0 3.0 0.00 0.00 0.00 56 1008.7
20260905053014 69 360 1.0 3.0 0.00 0.00 0.00 55 1008.6
20260905051548 69 360 1.0 4.0 0.00 0.00 0.00 54 1008.7
20260905050047 70 360 3.0 5.0 0.00 0.00 0.00 52 1008.6
20260905044559 70 360 3.0 6.0 0.00 0.00 0.00 51 1008.5
20260905044503 71 360 3.0 6.0 0.00 0.00 0.00 51 1008.5
20260905043053 72 360 2.0 4.0 0.00 0.00 0.00 49 1008.4
20260905041531 72 360 2.0 6.0 0.00 0.00 0.00 48 1008.3
20260905040014 73 360 3.0 8.0 0.00 0.00 0.00 46 1008.2
20260905034539 73 360 2.0 5.0 0.00 0.00 0.00 46 1008.2
20260905033035 74 360 3.0 6.0 0.00 0.00 0.00 45 1008.0
20260905031530 75 360 2.0 4.0 0.00 0.00 0.00 44 1007.8
20260905030119 75 360 2.0 4.0 0.00 0.00 0.00 43 1007.6
20260905024527 76 360 3.0 8.0 0.00 0.00 0.00 42 1007.3
20260905023021 77 360 3.0 8.0 0.00 0.00 0.00 42 1007.2
20260905021520 77 360 3.0 8.0 0.00 0.00 0.00 42 1007.1
20260905020047 78 13 6.0 14.0 0.00 0.00 0.00 40 1006.9
20260905014513 79 13 5.0 13.0 0.00 0.00 0.00 39 1006.9
20260905013052 79 15 6.0 14.0 0.00 0.00 0.00 37 1006.8
20260905011537 80 163 7.0 15.0 0.00 0.00 0.00 36 1006.8
20260905010001 80 180 6.0 13.0 0.00 0.00 0.00 39 1006.7
20260905004537 80 186 8.0 18.0 0.00 0.00 0.00 38 1006.8
20260905003037 80 17 11.0 17.0 0.00 0.00 0.00 38 1006.8
20260905001517 81 14 5.0 16.0 0.00 0.00 0.00 37 1006.9
20260905000107 82 17 8.0 16.0 0.00 0.00 0.00 36 1006.9
20260904234534 83 241 9.0 17.0 0.00 0.00 0.00 33 1006.9
20260904233024 84 230 6.0 22.0 0.00 0.00 0.00 33 1006.7
20260904231503 84 221 7.0 16.0 0.00 0.00 0.00 33 1006.8
20260904230047 84 250 13.0 19.0 0.00 0.00 0.00 32 1006.7
20260904224507 85 202 8.0 22.0 0.00 0.00 0.00 32 1007.0
20260904223050 86 196 9.0 19.0 0.00 0.00 0.00 30 1006.9
20260904221542 87 229 9.0 19.0 0.00 0.00 0.00 31 1007.0
20260904220112 87 206 10.0 27.0 0.00 0.00 0.00 30 1007.1
20260904214522 87 236 10.0 21.0 0.00 0.00 0.00 29 1007.2
20260904213017 87 190 10.0 22.0 0.00 0.00 0.00 29 1007.3
20260904211509 87 214 11.0 22.0 0.00 0.00 0.00 29 1007.5
20260904210106 87 212 8.0 22.0 0.00 0.00 0.00 30 1007.7
20260904204527 86 239 9.0 17.0 0.00 0.00 0.00 32 1007.5
20260904203012 86 213 15.0 22.0 0.00 0.00 0.00 31 1007.7
20260904201556 86 205 8.0 21.0 0.00 0.00 0.00 32 1007.7
20260904200006 86 180 8.0 15.0 0.00 0.00 0.00 34 1007.8
20260904194629 85 202 9.0 18.0 0.00 0.00 0.00 34 1008.0
20260904193035 83 143 9.0 15.0 0.00 0.00 0.00 38 1008.0
20260904191510 82 201 9.0 21.0 0.00 0.00 0.00 38 1008.3
20260904190057 82 169 7.0 16.0 0.00 0.00 0.00 45 1008.3
20260904184507 83 172 8.0 16.0 0.00 0.00 0.00 45 1008.3
20260904183044 82 163 11.0 19.0 0.00 0.00 0.00 46 1008.4
20260904181528 82 181 7.0 19.0 0.00 0.00 0.00 46 1008.6
20260904180101 81 360 11.0 22.0 0.00 0.00 0.00 49 1008.6
20260904174516 80 136 13.0 23.0 0.00 0.00 0.00 51 1008.6
20260904173104 79 360 13.0 24.0 0.00 0.00 0.00 53 1008.7
20260904171541 78 203 10.0 19.0 0.00 0.00 0.00 56 1008.8
20260904170110 77 182 11.0 20.0 0.00 0.00 0.00 57 1008.8
20260904164530 76 167 11.0 20.0 0.00 0.00 0.00 59 1008.7
20260904163009 75 157 11.0 23.0 0.00 0.00 0.00 61 1008.6
20260904161547 74 148 11.0 19.0 0.00 0.00 0.00 62 1008.5
20260904160002 73 159 10.0 18.0 0.00 0.00 0.00 65 1008.6
20260904154530 72 360 12.0 21.0 0.00 0.00 0.00 66 1008.7
20260904153017 71 360 10.0 19.0 0.00 0.00 0.00 68 1008.7
20260904151546 71 360 11.0 19.0 0.00 0.00 0.00 68 1008.6
20260904150002 70 360 10.0 18.0 0.00 0.00 0.00 68 1008.5
20260904144535 69 360 9.0 15.0 0.00 0.00 0.00 69 1008.5
20260904143016 67 360 6.0 11.0 0.00 0.00 0.00 74 1008.5
20260904141617 65 360 4.0 9.0 0.00 0.00 0.00 78 1008.3
20260904140002 63 360 4.0 8.0 0.00 0.00 0.00 81 1008.3
20260904134545 61 360 4.0 8.0 0.00 0.00 0.00 81 1008.1
20260904133018 61 15 3.0 6.0 0.00 0.00 0.00 81 1008.1
20260904131610 61 182 3.0 5.0 0.00 0.00 0.00 82 1007.9
20260904130010 60 173 2.0 5.0 0.00 0.00 0.00 82 1007.6
20260904124548 61 173 1.0 5.0 0.00 0.00 0.00 82 1007.5
20260904123042 61 173 1.0 4.0 0.00 0.00 0.00 82 1007.3
20260904121528 61 173 1.0 4.0 0.00 0.00 0.00 81 1007.1
20260904120058 61 17 0.0 2.0 0.00 0.00 0.00 82 1007.2
20260904114523 62 15 1.0 4.0 0.00 0.00 0.00 81 1007.1
20260904113100 62 15 0.0 2.0 0.00 0.00 0.00 81 1007.1
20260904111555 62 15 2.0 5.0 0.00 0.00 0.00 82 1007.1
20260904110009 62 14 2.0 6.0 0.00 0.00 0.00 82 1006.8
20260904104555 62 16 1.0 5.0 0.00 0.00 0.00 81 1006.8
20260904103044 62 13 2.0 4.0 0.00 0.00 0.00 80 1006.6
20260904101514 63 13 2.0 6.0 0.00 0.00 0.00 79 1006.5
20260904094522 63 145 3.0 7.0 0.00 0.00 0.00 77 1006.3
20260904093058 64 126 3.0 7.0 0.00 0.00 0.00 76 1006.3
20260904091548 64 140 3.0 5.0 0.00 0.00 0.00 76 1006.4
20260904090008 64 139 3.0 5.0 0.00 0.00 0.00 75 1006.5
20260904084549 65 140 1.0 3.0 0.00 0.00 0.00 74 1006.5
20260904083028 65 138 1.0 4.0 0.00 0.00 0.00 73 1006.6
20260904081515 65 142 3.0 5.0 0.00 0.00 0.00 72 1006.7
20260904080107 66 116 3.0 6.0 0.00 0.00 0.00 70 1006.8
20260904074530 67 115 3.0 6.0 0.00 0.00 0.00 68 1006.9
20260904073103 67 116 2.0 3.0 0.00 0.00 0.00 66 1006.8
20260904073001 67 115 2.0 3.0 0.00 0.00 0.00 66 1006.7
20260904071552 68 111 0.0 3.0 0.00 0.00 0.00 65 1006.8
20260904070011 69 121 3.0 6.0 0.00 0.00 0.00 64 1006.8
20260904064614 69 175 0.0 6.0 0.00 0.00 0.00 65 1006.8
20260904064501 69 175 0.0 6.0 0.00 0.00 0.00 65 1006.8
20260904063052 69 164 2.0 6.0 0.00 0.00 0.00 64 1006.8